Previsão horária em Allende

Hoje, 25 Junho, Sexta-feira

Tempo Temperatura Precipitação Vento Pressão Humidade
00:00 +26°C° 0 mm 1 m/s 759 mmHg 92%
01:00 +26°C° 1.1 mm 1 m/s 758 mmHg 92%
02:00 +26°C° 1.1 mm 2 m/s 758 mmHg 92%
03:00 +25°C° 1.1 mm 2 m/s 757 mmHg 93%
04:00 +26°C° 0 mm 1 m/s 757 mmHg 92%
05:00 +26°C° 0 mm 1 m/s 758 mmHg 92%
06:00 +26°C° 0 mm 1 m/s 758 mmHg 92%
07:00 +27°C° 0 mm 1 m/s 758 mmHg 87%
08:00 +28°C° 0 mm 1 m/s 758 mmHg 82%
09:00 +30°C° 0 mm 1 m/s 758 mmHg 77%
10:00 +31°C° 0 mm 1 m/s 758 mmHg 71%
11:00 +34°C° 0 mm 2 m/s 757 mmHg 65%
12:00 +35°C° 0 mm 2 m/s 757 mmHg 60%
13:00 +35°C° 0 mm 2 m/s 757 mmHg 60%
14:00 +35°C° 0 mm 3 m/s 756 mmHg 61%
15:00 +35°C° 0 mm 3 m/s 756 mmHg 61%
16:00 +33°C° 0 mm 3 m/s 756 mmHg 67%
17:00 +32°C° 0 mm 4 m/s 756 mmHg 73%
18:00 +30°C° 0 mm 4 m/s 756 mmHg 78%
19:00 +29°C° 0 mm 4 m/s 756 mmHg 80%
20:00 +28°C° 0 mm 3 m/s 756 mmHg 82%
21:00 +28°C° 0 mm 3 m/s 757 mmHg 84%
22:00 +28°C° 0 mm 3 m/s 757 mmHg 85%
23:00 +27°C° 0 mm 3 m/s 757 mmHg 86%

Amanhã, 26 Junho, Sábado

Tempo Temperatura Precipitação Vento Pressão Humidade
00:00 +27°C° 0 mm 2 m/s 757 mmHg 86%
01:00 +27°C° 0.3 mm 2 m/s 756 mmHg 87%
02:00 +26°C° 0.3 mm 2 m/s 756 mmHg 88%
03:00 +26°C° 0.3 mm 2 m/s 756 mmHg 89%
04:00 +26°C° 0 mm 1 m/s 756 mmHg 89%
05:00 +26°C° 0 mm 1 m/s 756 mmHg 89%
06:00 +26°C° 0 mm 1 m/s 756 mmHg 90%
07:00 +27°C° 0 mm 1 m/s 757 mmHg 85%
08:00 +28°C° 0 mm 1 m/s 757 mmHg 81%
09:00 +30°C° 0 mm 1 m/s 757 mmHg 77%
10:00 +31°C° 0 mm 1 m/s 757 mmHg 72%
11:00 +32°C° 0 mm 1 m/s 757 mmHg 68%
12:00 +33°C° 0 mm 1 m/s 757 mmHg 63%
13:00 +33°C° 0 mm 1 m/s 756 mmHg 63%
14:00 +34°C° 0 mm 2 m/s 755 mmHg 63%
15:00 +34°C° 0 mm 2 m/s 755 mmHg 62%
16:00 +32°C° 0 mm 2 m/s 755 mmHg 67%
17:00 +31°C° 0 mm 2 m/s 754 mmHg 72%
18:00 +30°C° 0 mm 2 m/s 754 mmHg 76%
19:00 +29°C° 0.2 mm 2 m/s 755 mmHg 79%
20:00 +28°C° 0.2 mm 1 m/s 755 mmHg 82%
21:00 +27°C° 0.2 mm 1 m/s 756 mmHg 85%
22:00 +27°C° 1.2 mm 1 m/s 756 mmHg 87%
23:00 +26°C° 1.2 mm 1 m/s 756 mmHg 89%

Depois de amanhã, 27 Junho, Domingo

Tempo Temperatura Precipitação Vento Pressão Humidade
00:00 +26°C° 1.2 mm 1 m/s 756 mmHg 92%
01:00 +26°C° 0.7 mm 2 m/s 756 mmHg 92%
02:00 +26°C° 0.7 mm 2 m/s 755 mmHg 92%
03:00 +26°C° 0.7 mm 2 m/s 755 mmHg 92%
04:00 +26°C° 0 mm 2 m/s 755 mmHg 93%
05:00 +25°C° 0 mm 2 m/s 755 mmHg 93%
06:00 +25°C° 0 mm 2 m/s 755 mmHg 93%
07:00 +27°C° 0 mm 2 m/s 756 mmHg 88%
08:00 +28°C° 0 mm 2 m/s 756 mmHg 84%
09:00 +29°C° 0 mm 2 m/s 756 mmHg 80%
10:00 +30°C° 0 mm 2 m/s 756 mmHg 74%
11:00 +32°C° 0 mm 2 m/s 756 mmHg 68%
12:00 +33°C° 0 mm 1 m/s 755 mmHg 62%
13:00 +34°C° 0 mm 2 m/s 755 mmHg 60%
14:00 +35°C° 0 mm 2 m/s 754 mmHg 58%
15:00 +35°C° 0 mm 2 m/s 754 mmHg 56%
16:00 +32°C° 0.3 mm 2 m/s 754 mmHg 63%
17:00 +31°C° 0.3 mm 3 m/s 754 mmHg 70%
18:00 +29°C° 0.3 mm 3 m/s 754 mmHg 77%
19:00 +28°C° 0.3 mm 3 m/s 754 mmHg 80%
20:00 +27°C° 0.3 mm 3 m/s 755 mmHg 83%
21:00 +26°C° 0.3 mm 3 m/s 755 mmHg 86%
22:00 +26°C° 1.2 mm 2 m/s 755 mmHg 86%
23:00 +25°C° 1.2 mm 2 m/s 755 mmHg 87%

28 Junho, Segunda-feira

Tempo Temperatura Precipitação Vento Pressão Humidade
00:00 +25°C° 1.2 mm 2 m/s 756 mmHg 88%
01:00 +25°C° 1.1 mm 2 m/s 755 mmHg 90%
02:00 +25°C° 1.1 mm 2 m/s 755 mmHg 92%
03:00 +25°C° 1.1 mm 2 m/s 755 mmHg 94%
04:00 +25°C° 0 mm 1 m/s 755 mmHg 93%
05:00 +25°C° 0 mm 1 m/s 755 mmHg 93%
06:00 +25°C° 0 mm 1 m/s 755 mmHg 93%
07:00 +26°C° 0 mm 1 m/s 756 mmHg 90%
08:00 +27°C° 0 mm 1 m/s 756 mmHg 87%
09:00 +27°C° 0 mm 1 m/s 756 mmHg 84%
10:00 +29°C° 0 mm 1 m/s 756 mmHg 78%
11:00 +30°C° 0 mm 1 m/s 756 mmHg 72%
12:00 +32°C° 0 mm 1 m/s 756 mmHg 66%
13:00 +31°C° 0.5 mm 1 m/s 755 mmHg 69%
14:00 +31°C° 0.5 mm 1 m/s 755 mmHg 72%
15:00 +30°C° 0.5 mm 1 m/s 755 mmHg 75%
16:00 +30°C° 0.5 mm 1 m/s 755 mmHg 78%
17:00 +29°C° 0.5 mm 2 m/s 755 mmHg 82%
18:00 +28°C° 0.5 mm 2 m/s 755 mmHg 85%
19:00 +28°C° 0.5 mm 2 m/s 756 mmHg 86%
20:00 +27°C° 0.5 mm 2 m/s 756 mmHg 87%
21:00 +26°C° 0.5 mm 2 m/s 757 mmHg 87%
22:00 +26°C° 0.7 mm 2 m/s 757 mmHg 88%
23:00 +26°C° 0.7 mm 2 m/s 757 mmHg 89%

29 Junho, Terça-feira

Tempo Temperatura Precipitação Vento Pressão Humidade
00:00 +26°C° 0.7 mm 2 m/s 757 mmHg 90%
01:00 +26°C° 1 mm 1 m/s 757 mmHg 91%
02:00 +25°C° 1 mm 1 m/s 756 mmHg 92%
03:00 +25°C° 1 mm 1 m/s 756 mmHg 93%
04:00 +25°C° 0.5 mm 1 m/s 756 mmHg 93%
05:00 +25°C° 0.5 mm 1 m/s 756 mmHg 93%
06:00 +25°C° 0.5 mm 1 m/s 757 mmHg 93%
07:00 +26°C° 0.2 mm 1 m/s 757 mmHg 89%
08:00 +27°C° 0.2 mm 1 m/s 757 mmHg 85%
09:00 +29°C° 0.2 mm 1 m/s 758 mmHg 80%
10:00 +30°C° 0 mm 1 m/s 757 mmHg 75%
11:00 +31°C° 0 mm 1 m/s 757 mmHg 70%
12:00 +32°C° 0 mm 1 m/s 757 mmHg 65%
13:00 +32°C° 0.5 mm 2 m/s 756 mmHg 66%
14:00 +32°C° 0.5 mm 2 m/s 756 mmHg 66%
15:00 +32°C° 0.5 mm 2 m/s 756 mmHg 67%
16:00 +31°C° 0.8 mm 2 m/s 756 mmHg 72%
17:00 +30°C° 0.8 mm 2 m/s 756 mmHg 77%
18:00 +30°C° 0.8 mm 2 m/s 756 mmHg 82%
19:00 +29°C° 0.7 mm 1 m/s 756 mmHg 85%
20:00 +28°C° 0.7 mm 1 m/s 756 mmHg 87%
21:00 +27°C° 0.7 mm 1 m/s 757 mmHg 89%
22:00 +26°C° 0.7 mm 1 m/s 757 mmHg 90%
23:00 +26°C° 0.7 mm 1 m/s 757 mmHg 90%

30 Junho, Quarta-feira

Tempo Temperatura Precipitação Vento Pressão Humidade
00:00 +26°C° 0.7 mm 2 m/s 757 mmHg 91%
01:00 +26°C° 0.3 mm 2 m/s 757 mmHg 91%
02:00 +25°C° 0.3 mm 2 m/s 756 mmHg 92%
03:00 +25°C° 0.3 mm 2 m/s 756 mmHg 93%
04:00 +25°C° 0 mm 3 m/s 756 mmHg 93%
05:00 +25°C° 0 mm 3 m/s 756 mmHg 94%
06:00 +25°C° 0 mm 3 m/s 756 mmHg 95%
07:00 +26°C° 0 mm 3 m/s 756 mmHg 89%
08:00 +28°C° 0 mm 3 m/s 757 mmHg 84%
09:00 +29°C° 0 mm 4 m/s 757 mmHg 79%
10:00 +30°C° 0.1 mm 3 m/s 757 mmHg 74%
11:00 +31°C° 0.1 mm 3 m/s 756 mmHg 69%
12:00 +33°C° 0.1 mm 3 m/s 756 mmHg 64%
13:00 +33°C° 0.4 mm 3 m/s 756 mmHg 65%
14:00 +34°C° 0.4 mm 3 m/s 755 mmHg 65%
15:00 +34°C° 0.4 mm 4 m/s 755 mmHg 66%
16:00 +32°C° 0.9 mm 4 m/s 755 mmHg 73%
17:00 +30°C° 0.9 mm 3 m/s 755 mmHg 80%
18:00 +29°C° 0.9 mm 3 m/s 755 mmHg 87%
19:00 +28°C° 0.8 mm 3 m/s 756 mmHg 88%
20:00 +27°C° 0.8 mm 2 m/s 756 mmHg 89%
21:00 +27°C° 0.8 mm 1 m/s 756 mmHg 90%
22:00 +26°C° 0.8 mm 2 m/s 756 mmHg 91%
23:00 +26°C° 0.8 mm 2 m/s 756 mmHg 91%
Mostrar mais